Location: Worth Mountain WMA
(34.9569°N, 81.4819°W)
Time: 00:45:38
(UTC-04:00)

Cosmos 405 Rocket - Pass Details

Date: 18 August 2017
Orbit: 492 x 557 km, 81.3° (Epoch: 23 September)

Event Time Altitude Azimuth Distance (km) Brightness Sun altitude
Rises 20:36:23 0° 351° (N) 2,624 6.7 -5.9°
Reaches altitude 10° 20:38:30 10° 351° (N) 1,744 5.8 -6.3°
Maximum altitude 20:42:20 85° 264° (W) 529 2.8 -7.0°
Drops below altitude 10° 20:46:13 10° 175° (S) 1,771 5.1 -7.8°
Sets 20:48:23 0° 174° (S) 2,667 6.0 -8.2°
